Stanley, ID

9:27 AM MDT on April 23, 2018 (GMT -0600)
Stanley

Weather History for KSNT - March, 2013

Change the Weather History Date:

Monday, March 4, 2013

  Actual Average Record
Temperature  
Mean Temperature 14 °F 24 °F  
Max Temperature 32 °F 39 °F 53 °F (1994)
Min Temperature -5 °F 9 °F -31 °F (1966)
Degree Days  
Heating Degree Days 51 41  
Month to date heating degree days 163 167  
Since 1 July heating degree days 7248 7701  
Cooling Degree Days 0 0  
Month to date cooling degree days 0 0  
Year to date cooling degree days 0 0  
Moisture  
Dew Point -1 °F    
Average Humidity 56    
Maximum Humidity 87    
Minimum Humidity 25    
Precipitation  
Precipitation 0.00 in 0.04 in 0.50 in (1996)
Month to date precipitation 0.13 0.16  
Year to date precipitation 1.37 3.47  
Sea Level Pressure  
Sea Level Pressure 30.18 in    
Wind  
Wind Speed 3 mph (South)    
Max Wind Speed 15 mph    
Max Gust Speed 17 mph    
T = Trace of Precipitation, MM = Missing Value Source: NWS Daily Summary

Daily Weather History Graph

Daily Weather History Graph

Search for Another Location

Airport or City:

Astronomy

Mar. 04, 2013 Rise Set
Actual Time 7:11 AM MST 6:32 PM MST
Civil Twilight 6:42 AM MST 7:01 PM MST
Nautical Twilight 6:08 AM MST 7:34 PM MST
Astronomical Twilight 5:35 AM MST 8:08 PM MST
Moon 1:34 AM MST (3/4) 11:08 AM MST (3/4)
Length of Visible Light 12h 19m
Length of Day
11h 21m
Waning Gibbous, 51% of the Moon is Illuminated
Mar 4
Waning Gibbous
Mar 4
Last Quarter
Mar 11
New
Mar 19
First Quarter
Mar 27
Full

Hourly Weather History & Observations

Time (MST) Temp. Windchill Dew Point Humidity Pressure Visibility Wind Dir Wind Speed Gust Speed Precip Events Conditions
12:51 AM 10.0 °F 3.6 °F -0.9 °F 61% 30.01 in - West 3.5 mph - N/A   Unknown
1:51 AM 6.1 °F - -2.9 °F 67% 30.06 in - Calm Calm - N/A   Unknown
2:51 AM 6.1 °F - -2.0 °F 69% 30.08 in - Calm Calm - N/A   Unknown
3:51 AM 3.0 °F - -2.9 °F 76% 30.11 in - Calm Calm - N/A   Unknown
4:51 AM -0.9 °F - -6.0 °F 79% 30.15 in - Calm Calm - N/A   Unknown
5:51 AM -2.0 °F -10.1 °F -6.0 °F 83% 30.19 in - South 3.5 mph - N/A   Unknown
6:51 AM -4.0 °F - -7.1 °F 87% 30.25 in - Calm Calm - N/A   Unknown
7:51 AM -2.9 °F - -6.0 °F 87% 30.26 in - Calm Calm - N/A   Unknown
8:51 AM 5.0 °F - -2.0 °F 73% 30.26 in - Calm Calm - N/A   Unknown
9:51 AM 12.0 °F - -0.9 °F 56% 30.25 in - Calm Calm - N/A   Unknown
10:51 AM 14.0 °F - 1.9 °F 59% 30.25 in - Calm Calm - N/A   Unknown
1:51 PM 30.0 °F - -0.9 °F 27% 30.17 in - Calm Calm - N/A   Unknown
2:51 PM 30.9 °F 27.5 °F -2.0 °F 24% 30.14 in - NNW 3.5 mph - N/A   Unknown
3:51 PM 32.0 °F 26.4 °F -0.9 °F 24% 30.15 in - NNW 5.8 mph - N/A   Unknown
4:51 PM 32.0 °F - 1.9 °F 28% 30.17 in - Calm Calm - N/A   Unknown
5:51 PM 28.0 °F - 1.0 °F 31% 30.20 in - Calm Calm - N/A   Unknown
6:51 PM 21.0 °F 16.2 °F 3.9 °F 48% 30.24 in - South 3.5 mph - N/A   Unknown
7:51 PM 19.9 °F 11.1 °F 3.9 °F 50% 30.25 in - SSE 6.9 mph - N/A   Unknown
8:51 PM 19.0 °F 6.1 °F 3.9 °F 52% 30.24 in - SSE 12.7 mph - N/A   Unknown
9:51 PM 17.1 °F 5.0 °F 3.9 °F 56% 30.21 in - South 10.4 mph - N/A   Unknown
10:51 PM 17.1 °F 5.0 °F 3.9 °F 56% 30.21 in - SSE 10.4 mph - N/A   Unknown
11:51 PM 14.0 °F 3.9 °F 1.9 °F 59% 30.22 in - South 6.9 mph - N/A   Unknown